Terug naar catalogus

FENGYUN 1C DEB

ActiefPO
NORAD 29812·DEBRIS·🇨🇳 China

Gelanceerd May 10, 1999 vanaf Taiyuan Satellite Launch Center

Loading…

Volgende Passages (komende 24 uur)

TLE

VerouderendSource: Space-Track

Epoch: Sep 9, 2026, 23:51 UTC

1 29812U 99025DE  26252.99421072  .00001141  00000-0  69782-3 0  9990
2 29812  98.3632  64.5730 0141755 280.6965 211.2226 14.02875995999743

Volg FENGYUN 1C DEB in realtime met AllMySat

Download on the App Store